H1 CPF 2 NER 2025 7 27 9 208 01 glonass141 H2 1908801 9141 44850 2025 7 27 0 0 0 2025 7 30 23 45 0 900 1 1 0 0 0 1 H9 10 0 60883 0.00000 0 6984050.314 -16721337.903 17970012.332 10 0 60883 900.00000 0 8436453.730 -18214054.989 15755330.910 10 0 60883 1800.00000 0 9571967.435 -19601373.131 13234969.846 10 0 60883 2700.00000 0 10391319.222 -20820545.872 10457723.115 10 0 60883 3600.00000 0 10908024.273 -21812282.276 7477410.898 10 0 60883 4500.00000 0 11147569.187 -22523280.241 4351843.642 10 0 60883 5400.00000 0 11146096.579 -22908531.628 1141704.446 10 0 60883 6300.00000 0 10948645.545 -22933301.262 -2090628.875 10 0 60883 7200.00000 0 10607022.198 -22574695.047 -5282299.021 10 0 60883 8100.00000 0 10177390.568 -21822749.502 -8371197.635 10 0 60883 9000.00000 0 9717686.292 -20680994.969 -11297182.256 10 0 60883 9900.00000 0 9284963.429 -19166467.035 -14003257.056 10 0 60883 10800.00000 0 8932787.800 -17309164.087 -16436693.290 10 0 60883 11700.00000 0 8708788.481 -15150972.517 -18550066.605 10 0 60883 12600.00000 0 8652472.391 -12744103.771 -20302189.997 10 0 60883 13500.00000 0 8793395.688 -10149108.254 -21658923.546 10 0 60883 14400.00000 0 9149770.452 -7432548.978 -22593844.642 10 0 60883 15300.00000 0 9727566.454 -4664432.320 -23088765.360 10 0 60883 16200.00000 0 10520146.626 -1915503.332 -23134086.869 10 0 60883 17100.00000 0 11508452.102 745481.363 -22728984.119 10 0 60883 18000.00000 0 12661729.185 3254389.261 -21881417.456 10 0 60883 18900.00000 0 13938767.608 5554146.555 -20607971.324 10 0 60883 19800.00000 0 15289597.739 7596870.573 -18933523.605 10 0 60883 20700.00000 0 16657574.858 9345611.926 -16890752.523 10 0 60883 21600.00000 0 17981762.340 10775634.906 -14519491.213 10 0 60883 22500.00000 0 19199512.946 11875184.208 -11865943.087 10 0 60883 23400.00000 0 20249139.044 12645707.822 -8981773.843 10 0 60883 24300.00000 0 21072559.034 13101528.903 -5923098.456 10 0 60883 25200.00000 0 21617808.317 13268982.663 -2749383.433 10 0 60883 26100.00000 0 21841309.045 13185056.798 477713.627 10 0 60883 27000.00000 0 21709803.308 12895594.718 3695544.143 10 0 60883 27900.00000 0 21201868.704 12453139.043 6841684.592 10 0 60883 28800.00000 0 20308953.059 11914507.619 9855144.676 10 0 60883 29700.00000 0 19035885.281 11338205.132 12677544.259 10 0 60883 30600.00000 0 17400841.377 10781779.876 15254236.605 10 0 60883 31500.00000 0 15434767.326 10299236.997 17535356.791 10 0 60883 32400.00000 0 13180282.974 9938616.752 19476775.920 10 0 60883 33300.00000 0 10690112.412 9739839.024 21040943.782 10 0 60883 34200.00000 0 8025105.598 9732903.919 22197604.851 10 0 60883 35100.00000 0 5251932.496 9936523.354 22924374.963 10 0 60883 36000.00000 0 2440544.176 10357240.511 23207168.587 10 0 60883 36900.00000 0 -338495.377 10989073.984 23040469.137 10 0 60883 37800.00000 0 -3016697.835 11813701.750 22427437.539 10 0 60883 38700.00000 0 -5530249.810 12801178.002 21379856.894 10 0 60883 39600.00000 0 -7822416.690 13911153.899 19917913.814 10 0 60883 40500.00000 0 -9845652.683 15094552.482 18069819.815 10 0 60883 41400.00000 0 -11563330.538 16295629.090 15871278.837 10 0 60883 42300.00000 0 -12951019.662 17454332.322 13364809.843 10 0 60883 43200.00000 0 -13997259.751 18508867.691 10598936.172 10 0 60883 44100.00000 0 -14703797.673 19398357.134 7627255.974 10 0 60883 45000.00000 0 -15085277.522 20065482.850 4507410.703 10 0 60883 45900.00000 0 -15168396.592 20459003.961 1299970.909 10 0 60883 46800.00000 0 -14990562.511 20536039.212 -1932739.383 10 0 60883 47700.00000 0 -14598107.975 20264018.158 -5127856.753 10 0 60883 48600.00000 0 -14044138.521 19622216.966 -8223206.839 10 0 60883 49500.00000 0 -13386104.595 18602812.136 -11158522.498 10 0 60883 50400.00000 0 -12683201.230 17211405.808 -13876626.914 10 0 60883 51300.00000 0 -11993706.178 15466998.646 -16324557.556 10 0 60883 52200.00000 0 -11372370.168 13401409.806 -18454608.037 10 0 60883 53100.00000 0 -10867970.796 11058167.022 -20225266.604 10 0 60883 54000.00000 0 -10521134.568 8490912.414 -21602032.250 10 0 60883 54900.00000 0 -10362520.129 5761390.183 -22558092.049 10 0 60883 55800.00000 0 -10411440.182 2937100.087 -23074846.201 10 0 60883 56700.00000 0 -10674980.800 88714.683 -23142270.534 10 0 60883 57600.00000 0 -11147655.553 -2712631.890 -22759109.533 10 0 60883 58500.00000 0 -11811609.009 -5398070.380 -21932896.380 10 0 60883 59400.00000 0 -12637360.780 -7903624.633 -20679800.010 10 0 60883 60300.00000 0 -13585058.294 -10172632.269 -19024302.567 10 0 60883 61200.00000 0 -14606184.880 -12157857.440 -16998714.022 10 0 60883 62100.00000 0 -15645650.479 -13823208.501 -14642533.938 10 0 60883 63000.00000 0 -16644176.139 -15144990.135 -12001673.310 10 0 60883 63900.00000 0 -17540871.050 -16112639.215 -9127552.263 10 0 60883 64800.00000 0 -18275892.889 -16728915.517 -6076091.768 10 0 60883 65700.00000 0 -18793078.833 -17009541.406 -2906619.618 10 0 60883 66600.00000 0 -19042436.019 -16982307.775 319287.420 10 0 60883 67500.00000 0 -18982386.407 -16685685.940 3539002.238 10 0 60883 68400.00000 0 -18581671.554 -16167005.775 6690063.148 10 0 60883 69300.00000 0 -17820837.370 -15480278.337 9711382.910 10 0 60883 70200.00000 0 -16693236.712 -14683755.825 12544427.650 10 0 60883 71100.00000 0 -15205508.031 -13837332.222 15134343.180 10 0 60883 72000.00000 0 -13377510.178 -12999894.245 17431007.484 10 0 60883 72900.00000 0 -11241716.080 -12226733.701 19389989.945 10 0 60883 73800.00000 0 -8842090.285 -11567129.392 20973399.847 10 0 60883 74700.00000 0 -6232496.516 -11062199.267 22150608.929 10 0 60883 75600.00000 0 -3474700.507 -10743111.964 22898835.227 10 0 60883 76500.00000 0 -636049.702 -10629731.916 23203577.951 10 0 60883 77400.00000 0 2213075.457 -10729754.152 23058895.758 10 0 60883 78300.00000 0 5001934.779 -11038364.782 22467523.430 10 0 60883 79200.00000 0 7662117.160 -11538441.531 21440824.693 10 0 60883 80100.00000 0 10130135.231 -12201286.493 19998581.597 10 0 60883 81000.00000 0 12349819.741 -12987861.328 18168623.668 10 0 60883 81900.00000 0 14274415.464 -13850474.280 15986302.803 10 0 60883 82800.00000 0 15868292.274 -14734849.481 13493822.686 10 0 60883 83700.00000 0 17108200.544 -15582492.764 10739434.273 10 0 60883 84600.00000 0 17984018.575 -16333255.411 7776511.587 10 0 60883 85500.00000 0 18498960.551 -16927988.389 4662524.659 10 0 60884 0.00000 0 18669235.973 -17311175.173 1457929.068 10 0 60884 900.00000 0 18523174.493 -17433431.744 -1775008.456 10 0 60884 1800.00000 0 18099852.489 -17253766.687 -4973421.137 10 0 60884 2700.00000 0 17447279.445 -16741505.151 -8075071.684 10 0 60884 3600.00000 0 16620220.439 -15877793.038 -11019571.306 10 0 60884 4500.00000 0 15677747.258 -14656616.168 -13749565.131 10 0 60884 5400.00000 0 14680622.217 -13085289.370 -16211859.618 10 0 60884 6300.00000 0 13688626.060 -11184392.977 -18358468.934 10 0 60884 7200.00000 0 12757943.829 -8987157.750 -20147558.925 10 0 60884 8100.00000 0 11938720.059 -6538322.709 -21544269.561 10 0 60884 9000.00000 0 11272887.362 -3892512.799 -22521399.326 10 0 60884 9900.00000 0 10792360.708 -1112203.674 -23059937.900 10 0 60884 10800.00000 0 10517673.955 1734641.636 -23149436.714 10 0 60884 11700.00000 0 10457116.182 4577165.658 -22788210.312 10 0 60884 12600.00000 0 10606404.054 7344330.810 -21983364.817 10 0 60884 13500.00000 0 10948903.513 9967642.012 -20750653.346 10 0 60884 14400.00000 0 11456390.737 12383764.237 -19114161.593 10 0 60884 15300.00000 0 12090319.391 14536926.171 -17105830.181 10 0 60884 16200.00000 0 12803539.747 16381010.377 -14764823.604 10 0 60884 17100.00000 0 13542396.123 17881243.630 -12136758.569 10 0 60884 18000.00000 0 14249113.152 19015418.081 -9272807.371 10 0 60884 18900.00000 0 14864369.299 19774593.741 -6228694.379 10 0 60884 19800.00000 0 15329948.237 20163254.724 -3063605.771 10 0 60884 20700.00000 0 15591355.645 20198914.658 160965.640 10 0 60884 21600.00000 0 15600290.665 19911189.890 3382417.479 10 0 60884 22500.00000 0 15316867.655 19340381.316 6538253.180 10 0 60884 23400.00000 0 14711494.654 18535626.146 9567291.774 10 0 60884 24300.00000 0 13766329.641 17552698.615 12410848.727 10 0 60884 25200.00000 0 12476253.546 16451552.987 15013865.257 10 0 60884 26100.00000 0 10849319.301 15293712.488 17325964.871 10 0 60884 27000.00000 0 8906658.055 14139613.736 19302417.564 10 0 60884 27900.00000 0 6681846.156 13046017.585 20904994.139 10 0 60884 28800.00000 0 4219758.691 12063594.096 22102695.288 10 0 60884 29700.00000 0 1574956.334 11234781.770 22872342.555 10 0 60884 30600.00000 0 -1190328.763 10592009.570 23199020.789 10 0 60884 31500.00000 0 -4008525.984 10156355.171 23076364.307 10 0 60884 32400.00000 0 -6809283.233 9936694.822 22506681.664 10 0 60884 33300.00000 0 -9522143.739 9929380.039 21500916.586 10 0 60884 34200.00000 0 -12079233.517 10118454.643 20078445.389 10 0 60884 35100.00000 0 -14417849.624 10476403.519 18266713.925 10 0 60884 36000.00000 0 -16482843.096 10965402.403 16100719.890 10 0 60884 36900.00000 0 -18228698.375 11539017.201 13622349.159 10 0 60884 37800.00000 0 -19621223.152 12144282.412 10879577.512 10 0 60884 38700.00000 0 -20638778.239 12724072.090 7925551.899 10 0 60884 39600.00000 0 -21272995.759 13219663.987 4817567.935 10 0 60884 40500.00000 0 -21528955.125 13573388.926 1615962.683 10 0 60884 41400.00000 0 -21424808.808 13731253.202 -1617056.147 10 0 60884 42300.00000 0 -20990873.071 13645422.376 -4818621.759 10 0 60884 43200.00000 0 -20268221.528 13276460.154 -7926436.580 10 0 60884 44100.00000 0 -19306840.620 12595226.040 -10879992.669 10 0 60884 45000.00000 0 -18163424.934 11584349.589 -13621759.424 10 0 60884 45900.00000 0 -16898905.774 10239216.977 -16098314.404 10 0 60884 46800.00000 0 -15575817.924 8568426.191 -18261394.179 10 0 60884 47700.00000 0 -14255616.486 6593689.826 -20068843.742 10 0 60884 48600.00000 0 -12996057.813 4349187.940 -21485445.260 10 0 60884 49500.00000 0 -11848755.692 1880396.827 -22483609.504 10 0 60884 50400.00000 0 -10857016.368 -757558.115 -23043916.152 10 0 60884 51300.00000 0 -10054043.895 -3501957.093 -23155492.418 10 0 60884 52200.00000 0 -9461591.397 -6284862.704 -22816222.733 10 0 60884 53100.00000 0 -9089114.676 -9035719.635 -22032785.654 10 0 60884 54000.00000 0 -8933463.143 -11684068.878 -20820517.643 10 0 60884 54900.00000 0 -8979120.128 -14162263.314 -19203106.803 10 0 60884 55800.00000 0 -9198981.294 -16408071.506 -17212122.989 10 0 60884 56700.00000 0 -9555637.028 -18367061.455 -14886393.977 10 0 60884 57600.00000 0 -10003103.384 -19994665.376 -12271240.356 10 0 60884 58500.00000 0 -10488927.200 -21257840.142 -9417584.648 10 0 60884 59400.00000 0 -10956575.289 -22136255.142 -6380952.600 10 0 60884 60300.00000 0 -11348005.767 -22622959.339 -3220386.708 10 0 60884 61200.00000 0 -11606312.035 -22724501.249 2706.265 10 0 60884 62100.00000 0 -11678327.185 -22460498.636 3225750.820 10 0 60884 63000.00000 0 -11517078.491 -21862677.789 6386217.715 10 0 60884 63900.00000 0 -11083988.320 -20973424.409 9422834.520 10 0 60884 64800.00000 0 -10350728.732 -19843908.326 12276768.361 10 0 60884 65700.00000 0 -9300651.804 -18531861.840 14892758.212 10 0 60884 66600.00000 0 -7929735.691 -17099105.458 17220175.417 10 0 60884 67500.00000 0 -6247006.691 -15608924.911 19213992.800 10 0 60884 68400.00000 0 -4274419.397 -14123408.910 20835644.720 10 0 60884 69300.00000 0 -2046199.370 -12700858.375 22053762.626 10 0 60884 70200.00000 0 392325.135 -11393374.385 22844773.074 10 0 60884 71100.00000 0 2986355.079 -10244724.431 23193347.731 10 0 60884 72000.00000 0 5673649.864 -9288574.902 23092697.410 10 0 60884 72900.00000 0 8386871.466 -8547162.533 22544704.917 10 0 60884 73800.00000 0 11056148.135 -8030459.484 21559894.119 10 0 60884 74700.00000 0 13611753.138 -7735866.493 20157235.394 10 0 60884 75600.00000 0 15986789.152 -7648446.846 18363790.379 10 0 60884 76500.00000 0 18119768.226 -7741691.634 16214201.696 10 0 60884 77400.00000 0 19956981.036 -7978784.765 13750036.169 10 0 60884 78300.00000 0 21454557.362 -8314315.303 11018992.795 10 0 60884 79200.00000 0 22580131.971 -8696365.815 8073989.461 10 0 60884 80100.00000 0 23314045.955 -9068889.275 4972144.996 10 0 60884 81000.00000 0 23650032.679 -9374274.532 1773675.544 10 0 60884 81900.00000 0 23595358.775 -9555991.794 -1459273.745 10 0 60884 82800.00000 0 23170413.450 -9561205.691 -4663838.898 10 0 60884 83700.00000 0 22407762.678 -9343244.296 -7777665.235 10 0 60884 84600.00000 0 21350707.582 -8863818.148 -10740128.794 10 0 60884 85500.00000 0 20051407.534 -8094893.622 -13493526.229 10 0 60885 0.00000 0 18568647.285 -7020139.536 -15984208.779 10 0 60885 900.00000 0 16965341.769 -5635883.225 -18163638.418 10 0 60885 1800.00000 0 15305886.333 -3951535.251 -19989341.343 10 0 60885 2700.00000 0 13653462.007 -1989461.206 -21425743.930 10 0 60885 3600.00000 0 12067411.874 215694.210 -22444870.942 10 0 60885 4500.00000 0 10600798.720 2618204.127 -23026893.439 10 0 60885 5400.00000 0 9298247.078 5162928.070 -23160515.433 10 0 60885 6300.00000 0 8194160.374 7787382.866 -22843191.879 10 0 60885 7200.00000 0 7311387.735 10424129.566 -22081173.997 10 0 60885 8100.00000 0 6660395.775 13003376.764 -20889381.419 10 0 60885 9000.00000 0 6238979.072 15455691.679 -19291104.054 10 0 60885 9900.00000 0 6032520.183 17714705.761 -17317539.977 10 0 60885 10800.00000 0 6014786.692 19719702.029 -15007178.820 10 0 60885 11700.00000 0 6149230.032 21417976.335 -12405043.224 10 0 60885 12600.00000 0 6390729.653 22766874.402 -9561803.708 10 0 60885 13500.00000 0 6687707.356 23735420.242 -6532784.809 10 0 60885 14400.00000 0 6984521.090 24305468.886 -3376882.433 10 0 60885 15300.00000 0 7224035.921 24472336.484 -155414.146 10 0 60885 16200.00000 0 7350262.643 24244882.848 3069074.743 10 0 60885 17100.00000 0 7310951.969 23645044.620 6234025.669 10 0 60885 18000.00000 0 7060034.445 22706840.166 9278078.067 10 0 60885 18900.00000 0 6559803.042 21474889.332 12142253.916 10 0 60885 19800.00000 0 5782746.535 20002511.215 14771092.947 10 0 60885 20700.00000 0 4712956.606 18349480.348 17113717.100 10 0 60885 21600.00000 0 3347049.634 16579535.499 19124804.501 10 0 60885 22500.00000 0 1694564.355 14757745.069 20765455.235 10 0 60885 23400.00000 0 -222181.633 12947838.521 22003933.322 10 0 60885 24300.00000 0 -2368771.299 11209614.241 22816271.768 10 0 60885 25200.00000 0 -4699876.337 9596530.699 23186730.050 10 0 60885 26100.00000 0 -7160906.047 8153579.996 23108095.990 10 0 60885 27000.00000 0 -9690050.127 6915531.108 22581826.619 10 0 60885 27900.00000 0 -12220632.420 5905614.919 21618025.349 10 0 60885 28800.00000 0 -14683679.780 5134705.043 20235255.433 10 0 60885 29700.00000 0 -17010601.141 4601028.131 18460192.532 10 0 60885 30600.00000 0 -19135867.020 4290415.581 16327121.892 10 0 60885 31500.00000 0 -20999579.084 4177086.306 13877288.538 10 0 60885 32400.00000 0 -22549823.418 4224928.106 11158111.589 10 0 60885 33300.00000 0 -23744709.526 4389224.264 8222276.542 10 0 60885 34200.00000 0 -24554009.532 4618753.157 5126722.030 10 0 60885 35100.00000 0 -24960328.309 4858172.597 1931539.864 10 0 60885 36000.00000 0 -24959754.525 5050588.153 -1301190.667 10 0 60885 36900.00000 0 -24561964.229 5140196.453 -4508611.569 10 0 60885 37800.00000 0 -23789771.577 5074890.734 -7628314.024 10 0 60885 38700.00000 0 -22678144.749 4808717.103 -10599560.790 10 0 60885 39600.00000 0 -21272727.898 4304075.893 -13364478.281 10 0 60885 40500.00000 0 -19627931.075 3533573.157 -15869194.051 10 0 60885 41400.00000 0 -17804668.581 2481442.007 -18064896.450 10 0 60885 42300.00000 0 -15867841.264 1144471.843 -19908794.828 10 0 60885 43200.00000 0 -13883669.111 -467595.586 -21364960.798 10 0 60885 44100.00000 0 -11916986.830 -2332221.568 -22405033.671 10 0 60885 45000.00000 0 -10028616.507 -4414772.082 -23008775.953 10 0 60885 45900.00000 0 -8272927.940 -6669737.248 -23164468.057 10 0 60885 46800.00000 0 -6695689.042 -9042418.192 -22869134.640 10 0 60885 47700.00000 0 -5332296.200 -11471011.040 -22128598.380 10 0 60885 48600.00000 0 -4206458.101 -13889001.027 -20957360.544 10 0 60885 49500.00000 0 -3329387.183 -16227766.673 -19378311.064 10 0 60885 50400.00000 0 -2699531.255 -18419285.006 -17422274.236 10 0 60885 51300.00000 0 -2302854.844 -20398824.769 -15127399.415 10 0 60885 52200.00000 0 -2113656.577 -22107515.005 -12538409.087 10 0 60885 53100.00000 0 -2095886.222 -23494681.804 -9705719.548 10 0 60885 54000.00000 0 -2204903.975 -24519855.823 -6684451.931 10 0 60885 54900.00000 0 -2389605.988 -25154367.273 -3533353.433 10 0 60885 55800.00000 0 -2594824.866 -25382462.399 -313650.359 10 0 60885 56700.00000 0 -2763902.508 -25201895.892 2912144.141 10 0 60885 57600.00000 0 -2841325.675 -24623975.652 6081444.127 10 0 60885 58500.00000 0 -2775312.420 -23673059.371 9132802.800 10 0 60885 59400.00000 0 -2520239.945 -22385525.299 12007098.882 10 0 60885 60300.00000 0 -2038811.471 -20808261.355 14648674.720 10 0 60885 61200.00000 0 -1303870.968 -18996736.573 17006404.646 10 0 60885 62100.00000 0 -299789.589 -17012735.881 19034673.792 10 0 60885 63000.00000 0 976634.384 -14921852.703 20694249.513 10 0 60885 63900.00000 0 2515799.992 -12790843.491 21953029.744 10 0 60885 64800.00000 0 4295468.646 -10684953.504 22786655.035 10 0 60885 65700.00000 0 6281463.787 -8665323.947 23178973.497 10 0 60885 66600.00000 0 8428877.221 -6786586.967 23122350.491 10 0 60885 67500.00000 0 10683733.467 -5094747.105 22617817.518 10 0 60885 68400.00000 0 12985044.713 -3625435.976 21675057.487 10 0 60885 69300.00000 0 15267172.770 -2402611.709 20312226.201 10 0 60885 70200.00000 0 17462401.673 -1437756.478 18555612.741 10 0 60885 71100.00000 0 19503615.497 -729605.092 16439144.101 10 0 60885 72000.00000 0 21326971.154 -264415.835 14003742.339 10 0 60885 72900.00000 0 22874455.543 -16772.285 11296545.218 10 0 60885 73800.00000 0 24096220.596 49117.257 8370004.062 10 0 60885 74700.00000 0 24952598.361 -22322.947 5280875.197 10 0 60885 75600.00000 0 25415711.054 -180148.890 2089123.697 10 0 60885 76500.00000 0 25470607.543 -369290.591 -1143239.672 10 0 60885 77400.00000 0 25115877.279 -533125.345 -4353365.720 10 0 60885 78300.00000 0 24363714.595 -616120.967 -7478794.392 10 0 60885 79200.00000 0 23239429.442 -566436.041 -10458678.049 10 0 60885 80100.00000 0 21780424.177 -338365.731 -13234975.625 10 0 60885 81000.00000 0 20034678.767 105472.066 -15753593.358 10 0 60885 81900.00000 0 18058807.775 792304.525 -17965448.786 10 0 60885 82800.00000 0 15915770.801 1737804.975 -19827436.303 10 0 60885 83700.00000 0 13672332.805 2945188.094 -21303274.661 10 0 60885 84600.00000 0 11396381.258 4404839.030 -22364219.378 10 0 60885 85500.00000 0 9154213.132 6094493.393 -22989625.829 10 0 60886 0.00000 0 7007905.887 7979961.490 -23167351.983 10 0 60886 900.00000 0 5012881.574 10016368.166 -22893993.050 10 0 60886 1800.00000 0 3215768.695 12149854.178 -22174943.609 10 0 60886 2700.00000 0 1652646.954 14319671.328 -21024286.643 10 0 60886 3600.00000 0 347750.309 16460581.153 -19464511.751 10 0 60886 4500.00000 0 -687319.831 18505457.551 -17526068.674 10 0 60886 5400.00000 0 -1453839.763 20387984.051 -15246765.271 10 0 60886 6300.00000 0 -1965658.673 22045332.640 -12671022.223 10 0 60886 7200.00000 0 -2248358.751 23420711.869 -9848999.550 10 0 60886 8100.00000 0 -2337917.723 24465677.615 -6835612.565 10 0 60886 9000.00000 0 -2278932.236 25142109.982 -3689457.008 10 0 60886 9900.00000 0 -2122478.851 25423774.010 -471664.936 10 0 60886 10800.00000 0 -1923704.558 25297399.542 2755285.850 10 0 60886 11700.00000 0 -1739249.735 24763235.919 5928785.303 10 0 60886 12600.00000 0 -1624613.248 23835059.321 8987303.684 10 0 60886 13500.00000 0 -1631571.373 22539633.482 11871579.681 10 0 60886 14400.00000 0 -1805759.568 20915647.298 14525761.351 10 0 60886 15300.00000 0 -2184518.918 19012174.460 16898478.332 10 0 60886 16200.00000 0 -2795097.653 16886719.827 18943825.439 10 0 60886 17100.00000 0 -3653283.126 14602934.006 20622239.710 10 0 60886 18000.00000 0 -4762521.557 12228090.956 21901255.094 10 0 60886 18900.00000 0 -6113562.638 9830432.718 22756121.420 10 0 60886 19800.00000 0 -7684644.386 7476490.491 23170276.752 10 0 60886 20700.00000 0 -9442211.466 5228491.938 23135664.829 10 0 60886 21600.00000 0 -11342138.306 3141960.898 22652891.920 10 0 60886 22500.00000 0 -13331407.659 1263607.645 21731220.133 10 0 60886 23400.00000 0 -15350176.436 -370403.937 20388396.911 10 0 60886 24300.00000 0 -17334144.595 -1735741.298 18650323.213 10 0 60886 25200.00000 0 -19217130.081 -2820687.568 16550565.641 10 0 60886 26100.00000 0 -20933743.784 -3626392.993 14129720.609 10 0 60886 27000.00000 0 -22422053.883 -4166583.115 11434641.407 10 0 60886 27900.00000 0 -23626128.672 -4466735.838 8517541.735 10 0 60886 28800.00000 0 -24498351.335 -4562761.714 5434991.953 10 0 60886 29700.00000 0 -25001409.094 -4499242.797 2246826.667 10 0 60886 30600.00000 0 -25109872.189 -4327304.235 -985015.596 10 0 60886 31500.00000 0 -24811295.020 -4102208.635 -4197698.057 10 0 60886 32400.00000 0 -24106791.623 -3880775.417 -7328712.856 10 0 60886 33300.00000 0 -23011059.764 -3718735.173 -10317105.169 10 0 60886 34200.00000 0 -21551851.278 -3668132.218 -13104669.390 10 0 60886 35100.00000 0 -19768909.835 -3774886.719 -15637093.050 10 0 60886 36000.00000 0 -17712420.031 -4076621.207 -17865025.096 10 0 60886 36900.00000 0 -15441032.568 -4600845.103 -19745046.709 10 0 60886 37800.00000 0 -13019548.330 -5363575.619 -21240524.978 10 0 60886 38700.00000 0 -10516358.602 -6368454.775 -22322332.243 10 0 60886 39600.00000 0 -8000748.963 -7606401.084 -22969416.733 10 0 60886 40500.00000 0 -5540179.971 -9055811.585 -23169213.351 10 0 60886 41400.00000 0 -3197658.507 -10683306.516 -22917886.647 10 0 60886 42300.00000 0 -1029309.617 -12444985.756 -22220401.535 10 0 60886 43200.00000 0 917750.071 -14288144.493 -21090420.700 10 0 60886 44100.00000 0 2607149.235 -16153376.088 -19550031.105 10 0 60886 45000.00000 0 4014537.560 -17976973.706 -17629305.409 10 0 60886 45900.00000 0 5128348.403 -19693529.702 -15365707.317 10 0 60886 46800.00000 0 5950018.354 -21238623.407 -12803352.982 10 0 60886 47700.00000 0 6493656.558 -22551484.303 -9992143.412 10 0 60886 48600.00000 0 6785179.956 -23577518.663 -6986785.403 10 0 60886 49500.00000 0 6860953.037 -24270593.681 -3845720.631 10 0 60886 50400.00000 0 6765991.536 -24594983.420 -629984.412 10 0 60886 51300.00000 0 6551807.655 -24526895.339 2597983.151 10 0 60886 52200.00000 0 6273989.265 -24055513.998 5775550.095 10 0 60886 53100.00000 0 5989616.397 -23183518.864 8841105.761 10 0 60886 54000.00000 0 5754624.734 -21927055.383 11735250.645 10 0 60886 54900.00000 0 5621227.655 -20315161.218 14401940.170 10 0 60886 55800.00000 0 5635505.439 -18388672.261 16789560.728 10 0 60886 56700.00000 0 5835262.892 -16198654.416 18851918.042 10 0 60886 57600.00000 0 6248245.084 -13804426.499 20549119.805 10 0 60886 58500.00000 0 6890785.820 -11271256.199 21848336.689 10 0 60886 59400.00000 0 7766945.334 -8667824.079 22724428.222 10 0 60886 60300.00000 0 8868173.472 -6063559.784 23160422.567 10 0 60886 61200.00000 0 10173512.942 -3525959.611 23147841.701 10 0 60886 62100.00000 0 11650335.072 -1117995.116 22686866.267 10 0 60886 63000.00000 0 13255578.619 1104281.373 21786336.951 10 0 60886 63900.00000 0 14937441.490 3093836.420 20463591.995 10 0 60886 64800.00000 0 16637456.465 4814374.451 18744143.209 10 0 60886 65700.00000 0 18292865.961 6241605.484 16661195.588 10 0 60886 66600.00000 0 19839198.112 7364009.463 14255018.512 10 0 60886 67500.00000 0 21212937.590 8183065.609 11572179.211 10 0 60886 68400.00000 0 22354180.053 8712937.256 8664651.980 10 0 60886 69300.00000 0 23209159.062 8979625.232 5588819.231 10 0 60886 70200.00000 0 23732539.028 9019625.187 2404382.927 10 0 60886 71100.00000 0 23889376.916 8878145.274 -826792.975 10 0 60886 72000.00000 0 23656668.841 8606959.410 -4041886.538 10 0 60886 72900.00000 0 23024414.893 8261987.107 -7178344.571 10 0 60886 73800.00000 0 21996155.625 7900702.830 -10175107.479 10 0 60886 74700.00000 0 20588955.938 7579485.460 -12973807.427 10 0 60886 75600.00000 0 18832835.576 7351021.210 -15519915.378 10 0 60886 76500.00000 0 16769668.971 7261871.339 -17763813.631 10 0 60886 77400.00000 0 14451599.824 7350309.035 -19661771.914 10 0 60886 78300.00000 0 11939036.485 7644518.387 -21176807.234 10 0 60886 79200.00000 0 9298311.946 8161232.903 -22279410.163 10 0 60886 80100.00000 0 6599106.511 8904872.202 -22948123.041 10 0 60886 81000.00000 0 3911741.048 9867214.187 -23169958.764 10 0 60886 81900.00000 0 1304454.087 11027617.159 -22940652.077 10 0 60886 82800.00000 0 -1159223.524 12353782.888 -22264738.715 10 0 60886 83700.00000 0 -3422887.032 13803028.613 -21155461.221 10 0 60886 84600.00000 0 -5439368.890 15324014.410 -19634503.680 10 0 60886 85500.00000 0 -7172455.270 16858852.977 -17731561.002 99